When you browse on this site, cookies collect data to enhance your experience and personalize the content and advertising you see.
Visit our Privacy Policy to learn more. By continuing to use the site, you agree to this use of cookies and data.
  • In Portugal
  • List of Countries
  • For 7 days
  • Water Temperature
  • Satellite Maps
  • Weather Map
  • Weather Widgets
  • user-avatar
    Login

    Hourly Weather Annaba

    Today, 17 January, Thursday

    Time Temperature Precipitation Wind Pressure Humidity
    00:00 +10°C° 0 mm 2 mps 762 mmHg 69%
    01:00 +9°C° 0 mm 2 mps 762 mmHg 68%
    02:00 +9°C° 0 mm 2 mps 762 mmHg 67%
    03:00 +9°C° 0 mm 2 mps 762 mmHg 67%
    04:00 +9°C° 0 mm 2 mps 761 mmHg 66%
    05:00 +9°C° 0 mm 2 mps 761 mmHg 67%
    06:00 +8°C° 0 mm 2 mps 761 mmHg 67%
    07:00 +8°C° 0 mm 2 mps 761 mmHg 67%
    08:00 +10°C° 0 mm 2 mps 761 mmHg 64%
    09:00 +12°C° 0 mm 2 mps 761 mmHg 62%
    10:00 +13°C° 0 mm 2 mps 761 mmHg 59%
    11:00 +15°C° 0 mm 1 mps 761 mmHg 54%
    12:00 +16°C° 0 mm 1 mps 760 mmHg 48%
    13:00 +18°C° 0 mm 1 mps 760 mmHg 43%
    14:00 +18°C° 0 mm 1 mps 760 mmHg 45%
    15:00 +18°C° 0 mm 1 mps 760 mmHg 48%
    16:00 +18°C° 0 mm 1 mps 759 mmHg 51%
    17:00 +15°C° 0 mm 1 mps 759 mmHg 57%
    18:00 +13°C° 0 mm 1 mps 759 mmHg 63%
    19:00 +10°C° 0 mm 0 mps 760 mmHg 69%
    20:00 +11°C° 0 mm 1 mps 760 mmHg 70%
    21:00 +11°C° 0 mm 1 mps 760 mmHg 71%
    22:00 +10°C° 0 mm 1 mps 760 mmHg 73%
    23:00 +9°C° 0 mm 2 mps 760 mmHg 72%

    Tomorrow, 18 January, Friday

    Time Temperature Precipitation Wind Pressure Humidity
    00:00 +9°C° 0 mm 2 mps 760 mmHg 72%
    01:00 +9°C° 0 mm 2 mps 760 mmHg 72%
    02:00 +9°C° 0 mm 2 mps 760 mmHg 71%
    03:00 +8°C° 0 mm 2 mps 759 mmHg 70%
    04:00 +8°C° 0 mm 2 mps 759 mmHg 70%
    05:00 +8°C° 0 mm 3 mps 759 mmHg 69%
    06:00 +8°C° 0 mm 3 mps 759 mmHg 68%
    07:00 +8°C° 0 mm 3 mps 759 mmHg 67%
    08:00 +10°C° 0 mm 3 mps 759 mmHg 65%
    09:00 +11°C° 0 mm 3 mps 760 mmHg 62%
    10:00 +13°C° 0 mm 3 mps 760 mmHg 59%
    11:00 +14°C° 0.1 mm 4 mps 760 mmHg 59%
    12:00 +14°C° 0.1 mm 4 mps 760 mmHg 60%
    13:00 +15°C° 0.1 mm 5 mps 759 mmHg 60%
    14:00 +15°C° 1.1 mm 4 mps 759 mmHg 66%
    15:00 +14°C° 1.1 mm 4 mps 759 mmHg 72%
    16:00 +13°C° 1.1 mm 3 mps 759 mmHg 78%
    17:00 +12°C° 1 mm 3 mps 759 mmHg 81%
    18:00 +13°C° 1 mm 2 mps 760 mmHg 84%
    19:00 +12°C° 1 mm 2 mps 760 mmHg 87%
    20:00 +12°C° 0.4 mm 2 mps 761 mmHg 87%
    21:00 +11°C° 0.4 mm 1 mps 761 mmHg 88%
    22:00 +11°C° 0.4 mm 1 mps 761 mmHg 88%
    23:00 +11°C° 0.1 mm 1 mps 761 mmHg 89%

    Day after tomorrow, 19 January, Saturday

    Time Temperature Precipitation Wind Pressure Humidity
    00:00 +10°C° 0.1 mm 1 mps 761 mmHg 90%
    01:00 +9°C° 0.1 mm 2 mps 761 mmHg 91%
    02:00 +9°C° 0.1 mm 2 mps 761 mmHg 91%
    03:00 +9°C° 0.1 mm 2 mps 761 mmHg 92%
    04:00 +9°C° 0.1 mm 2 mps 761 mmHg 92%
    05:00 +9°C° 0.1 mm 2 mps 761 mmHg 92%
    06:00 +8°C° 0.1 mm 2 mps 761 mmHg 92%
    07:00 +9°C° 0.1 mm 1 mps 761 mmHg 91%
    08:00 +9°C° 0 mm 2 mps 761 mmHg 87%
    09:00 +10°C° 0 mm 2 mps 761 mmHg 83%
    10:00 +12°C° 0 mm 2 mps 761 mmHg 78%
    11:00 +13°C° 0.2 mm 2 mps 761 mmHg 75%
    12:00 +13°C° 0.2 mm 3 mps 760 mmHg 71%
    13:00 +13°C° 0.2 mm 3 mps 760 mmHg 68%
    14:00 +13°C° 0.1 mm 4 mps 760 mmHg 68%
    15:00 +13°C° 0.1 mm 4 mps 759 mmHg 69%
    16:00 +13°C° 0.1 mm 5 mps 759 mmHg 69%
    17:00 +12°C° 0.1 mm 4 mps 760 mmHg 73%
    18:00 +11°C° 0.1 mm 4 mps 760 mmHg 77%
    19:00 +10°C° 0.1 mm 3 mps 760 mmHg 81%
    20:00 +9°C° 0.1 mm 3 mps 760 mmHg 81%
    21:00 +9°C° 0.1 mm 3 mps 761 mmHg 82%
    22:00 +9°C° 0.1 mm 3 mps 761 mmHg 82%
    23:00 +8°C° 0 mm 3 mps 761 mmHg 81%

    20 January, Sunday

    Time Temperature Precipitation Wind Pressure Humidity
    00:00 +8°C° 0 mm 3 mps 760 mmHg 79%
    01:00 +8°C° 0 mm 3 mps 760 mmHg 78%
    02:00 +8°C° 0 mm 3 mps 760 mmHg 78%
    03:00 +8°C° 0 mm 3 mps 760 mmHg 78%
    04:00 +7°C° 0 mm 2 mps 759 mmHg 77%
    05:00 +7°C° 0 mm 2 mps 759 mmHg 78%
    06:00 +7°C° 0 mm 2 mps 759 mmHg 78%
    07:00 +7°C° 0 mm 3 mps 759 mmHg 78%
    08:00 +9°C° 0 mm 3 mps 759 mmHg 74%
    09:00 +10°C° 0 mm 3 mps 759 mmHg 70%
    10:00 +12°C° 0 mm 3 mps 759 mmHg 66%
    11:00 +13°C° 0 mm 3 mps 758 mmHg 60%
    12:00 +16°C° 0 mm 3 mps 758 mmHg 54%
    13:00 +17°C° 0 mm 3 mps 757 mmHg 48%
    14:00 +17°C° 0.1 mm 2 mps 757 mmHg 50%
    15:00 +18°C° 0.1 mm 1 mps 757 mmHg 52%
    16:00 +18°C° 0.1 mm 1 mps 756 mmHg 54%
    17:00 +16°C° 0.1 mm 1 mps 756 mmHg 62%
    18:00 +14°C° 0.1 mm 2 mps 757 mmHg 69%
    19:00 +13°C° 0.1 mm 2 mps 757 mmHg 77%
    20:00 +12°C° 0.1 mm 2 mps 757 mmHg 80%
    21:00 +12°C° 0.1 mm 1 mps 757 mmHg 84%
    22:00 +11°C° 0.1 mm 0 mps 757 mmHg 88%
    23:00 +11°C° 0.2 mm 1 mps 757 mmHg 88%

    21 January, Monday

    Time Temperature Precipitation Wind Pressure Humidity
    00:00 +11°C° 0.2 mm 1 mps 757 mmHg 88%
    01:00 +10°C° 0.2 mm 2 mps 757 mmHg 87%
    02:00 +10°C° 0 mm 2 mps 757 mmHg 86%
    03:00 +10°C° 0 mm 2 mps 756 mmHg 85%
    04:00 +9°C° 0 mm 2 mps 756 mmHg 83%
    05:00 +9°C° 0.1 mm 2 mps 756 mmHg 83%
    06:00 +9°C° 0.1 mm 3 mps 756 mmHg 82%
    07:00 +9°C° 0.1 mm 3 mps 756 mmHg 82%
    08:00 +10°C° 1.8 mm 4 mps 757 mmHg 84%
    09:00 +10°C° 1.8 mm 4 mps 757 mmHg 86%
    10:00 +10°C° 1.8 mm 5 mps 758 mmHg 88%
    11:00 +10°C° 1.8 mm 6 mps 758 mmHg 86%
    12:00 +11°C° 1.8 mm 7 mps 758 mmHg 85%
    13:00 +11°C° 1.8 mm 8 mps 759 mmHg 83%
    14:00 +11°C° 0.5 mm 8 mps 759 mmHg 81%
    15:00 +11°C° 0.5 mm 8 mps 759 mmHg 79%
    16:00 +11°C° 0.5 mm 8 mps 759 mmHg 77%
    17:00 +10°C° 0.4 mm 7 mps 759 mmHg 79%
    18:00 +9°C° 0.4 mm 7 mps 759 mmHg 81%
    19:00 +9°C° 0.4 mm 6 mps 760 mmHg 83%
    20:00 +8°C° 0.3 mm 6 mps 760 mmHg 83%
    21:00 +8°C° 0.3 mm 6 mps 760 mmHg 82%
    22:00 +8°C° 0.3 mm 6 mps 761 mmHg 82%
    23:00 +8°C° 0.4 mm 6 mps 760 mmHg 82%

    22 January, Tuesday

    Time Temperature Precipitation Wind Pressure Humidity
    00:00 +8°C° 0.4 mm 6 mps 760 mmHg 83%
    01:00 +8°C° 0.4 mm 6 mps 760 mmHg 83%
    02:00 +7°C° 0.3 mm 6 mps 760 mmHg 83%
    03:00 +7°C° 0.3 mm 6 mps 760 mmHg 84%
    04:00 +7°C° 0.3 mm 5 mps 760 mmHg 84%
    05:00 +7°C° 0.3 mm 5 mps 759 mmHg 85%
    06:00 +6°C° 0.3 mm 5 mps 759 mmHg 86%
    07:00 +6°C° 0.3 mm 4 mps 759 mmHg 87%
    08:00 +7°C° 0.2 mm 4 mps 759 mmHg 84%
    09:00 +8°C° 0.2 mm 4 mps 759 mmHg 81%
    10:00 +10°C° 0.2 mm 4 mps 759 mmHg 78%
    11:00 +11°C° 0.2 mm 4 mps 758 mmHg 72%
    12:00 +12°C° 0.2 mm 3 mps 757 mmHg 67%
    13:00 +12°C° 0.2 mm 3 mps 756 mmHg 62%
    14:00 +13°C° 0 mm 3 mps 755 mmHg 58%
    15:00 +15°C° 0 mm 2 mps 755 mmHg 55%
    16:00 +15°C° 0 mm 2 mps 754 mmHg 51%
    17:00 +14°C° 0 mm 2 mps 753 mmHg 56%
    18:00 +12°C° 0 mm 1 mps 753 mmHg 60%
    19:00 +11°C° 0 mm 1 mps 753 mmHg 65%
    20:00 +10°C° 0 mm 2 mps 752 mmHg 63%
    21:00 +9°C° 0 mm 3 mps 751 mmHg 62%
    22:00 +8°C° 0 mm 4 mps 751 mmHg 60%
    23:00 +8°C° 0 mm 5 mps 750 mmHg 59%
    Show more